Weather History for Houlton, ME

Change the Weather History Date:

Monday, October 8, 2012

  Actual Average Record
Temperature  
Mean Temperature 40 °F 46 °F  
Max Temperature 51 °F 57 °F 80 °F (1970)
Min Temperature 28 °F 35 °F 19 °F (1964)
Degree Days  
Heating Degree Days 25 19  
Month to date heating degree days 105 141  
Since 1 July heating degree days 431 609  
Cooling Degree Days 0 0  
Month to date cooling degree days 0 0  
Year to date cooling degree days 277 191  
Moisture  
Dew Point 34 °F    
Average Humidity 67    
Maximum Humidity 92    
Minimum Humidity 42    
Precipitation  
Precipitation 0.36 in 0.11 in 1.61 in (1976)
Month to date precipitation 1.63 0.92  
Year to date precipitation 35.42 29.94  
Sea Level Pressure  
Sea Level Pressure 30.15 in    
Wind  
Wind Speed 5 mph (WNW)    
Max Wind Speed 17 mph    
Max Gust Speed 24 mph    
Visibility 9 miles    
Events Rain    
T = Trace of Precipitation, MM = Missing Value Source: NWS Daily Summary

Daily Weather History Graph

Daily Weather History Graph

Search for Another Location

Airport:

Trip Planner

Search our weather history database for the weather conditions in past years. The results will help you decide how hot, cold, wet, or windy it might be!

Date:

Astronomy

Oct. 08, 2012 Rise Set
Actual Time 6:39 AM EDT 5:56 PM EDT
Civil Twilight 6:09 AM EDT 6:26 PM EDT
Nautical Twilight 5:34 AM EDT 7:01 PM EDT
Astronomical Twilight 4:59 AM EDT 7:36 PM EDT
Moon 11:54 PM EDT (10/8) 2:04 PM EDT (10/8)
Length of Visible Light 12h 17m
Length of Day
11h 17m
Waning Gibbous, 46% of the Moon is Illuminated
Oct 8
Waning Gibbous
Oct 15
New
Oct 21
First Quarter
Oct 29
Full
Nov 6
Last Quarter

Hourly Weather History & Observations

Time (EDT) Temp. Windchill Dew Point Humidity Pressure Visibility Wind Dir Wind Speed Gust Speed Precip Events Conditions
12:53 AM 44.1 °F - 42.1 °F 93% 30.02 in 8.0 mi Calm Calm - 0.01 in Rain Light Rain
1:33 AM 42.8 °F 39.3 °F 39.2 °F 87% 30.04 in 4.0 mi NW 5.8 mph - 0.05 in Rain Rain
1:53 AM 42.1 °F 39.2 °F 39.0 °F 89% 30.05 in 6.0 mi NNW 4.6 mph - 0.09 in Rain Rain
2:53 AM 39.9 °F 37.8 °F 37.0 °F 89% 30.04 in 5.0 mi North 3.5 mph - 0.13 in Rain Rain
3:53 AM 39.9 °F 37.8 °F 37.0 °F 89% 30.06 in 5.0 mi WNW 3.5 mph - 0.09 in Rain Rain
4:53 AM 39.0 °F 36.8 °F 37.0 °F 93% 30.07 in 6.0 mi Variable 3.5 mph - 0.05 in Rain Light Rain
5:09 AM 39.2 °F - 35.6 °F 87% 30.05 in 9.0 mi Calm Calm - 0.01 in Rain Light Rain
5:43 AM 39.2 °F - 37.4 °F 93% 30.05 in 10.0 mi Calm Calm - 0.01 in Rain Light Rain
5:53 AM 39.0 °F - 37.0 °F 93% 30.07 in 10.0 mi Calm Calm - 0.01 in Rain Light Rain
6:09 AM 39.2 °F - 37.4 °F 93% 30.05 in 10.0 mi Calm Calm - 0.00 in   Overcast
6:53 AM 39.0 °F - 36.0 °F 89% 30.07 in 10.0 mi Calm Calm - 0.00 in   Overcast
7:53 AM 39.9 °F 37.8 °F 37.0 °F 89% 30.09 in 10.0 mi WNW 3.5 mph - N/A   Overcast
8:28 AM 41.0 °F 38.0 °F 37.4 °F 87% 30.09 in 10.0 mi West 4.6 mph - N/A   Mostly Cloudy
8:53 AM 42.1 °F 37.1 °F 37.0 °F 82% 30.12 in 10.0 mi West 8.1 mph - N/A   Mostly Cloudy
9:49 AM 44.6 °F 39.7 °F 37.4 °F 76% 30.11 in 10.0 mi West 9.2 mph - N/A   Mostly Cloudy
9:53 AM 43.0 °F 38.8 °F 36.0 °F 76% 30.13 in 10.0 mi WNW 6.9 mph - N/A   Mostly Cloudy
10:10 AM 44.6 °F 38.1 °F 33.8 °F 66% 30.11 in 10.0 mi West 13.8 mph 19.6 mph N/A   Scattered Clouds
10:53 AM 46.0 °F 41.4 °F 33.1 °F 61% 30.13 in 10.0 mi WNW 9.2 mph 23.0 mph N/A   Scattered Clouds
11:53 AM 46.9 °F - 33.1 °F 59% 30.14 in 10.0 mi NW 12.7 mph 19.6 mph N/A   Mostly Cloudy
12:53 PM 46.0 °F 40.6 °F 30.9 °F 56% 30.15 in 10.0 mi WNW 11.5 mph - N/A   Mostly Cloudy
1:53 PM 46.9 °F - 30.9 °F 54% 30.17 in 10.0 mi NW 10.4 mph - N/A   Overcast
2:40 PM 50.0 °F - 28.4 °F 43% 30.16 in 10.0 mi WSW 15.0 mph 19.6 mph N/A   Scattered Clouds
2:53 PM 50.0 °F - 28.0 °F 43% 30.17 in 10.0 mi West 10.4 mph 24.2 mph N/A   Mostly Cloudy
3:53 PM 48.9 °F - 28.9 °F 46% 30.19 in 10.0 mi WSW 5.8 mph - N/A   Clear
4:53 PM 46.9 °F - 28.0 °F 48% 30.21 in 10.0 mi NW 6.9 mph - N/A   Clear
5:53 PM 41.0 °F 39.0 °F 30.0 °F 65% 30.25 in 10.0 mi West 3.5 mph - N/A   Clear
6:53 PM 37.0 °F 34.5 °F 30.9 °F 79% 30.29 in 10.0 mi SE 3.5 mph - N/A   Clear
7:53 PM 33.1 °F - 30.0 °F 89% 30.31 in 10.0 mi Calm Calm - N/A   Clear
8:53 PM 30.0 °F - 28.9 °F 96% 30.33 in 10.0 mi Calm Calm - N/A   Clear
9:53 PM 30.9 °F - 28.0 °F 89% 30.36 in 10.0 mi Calm Calm - N/A   Clear
10:53 PM 30.0 °F - 28.0 °F 92% 30.35 in 10.0 mi Calm Calm - N/A   Clear
11:53 PM 30.0 °F - 28.0 °F 92% 30.36 in 10.0 mi Calm Calm - N/A   Clear